OpenBCM V1.13 (Linux)

Packet Radio Mailbox

DB0FHN

[JN59NK Nuernberg]

 Login: GUEST





  
LU9DCE > KEPLER   08.07.19 20:34l 249 Lines 12096 Bytes #999 (0) @ WW
BID : 28302_LU9DCE
Read: DJ6UX DF7EAV GUEST
Subj: TLE 08 07
Path: DB0FHN<DB0BLO<DB0ERF<OK0NAG<OK0PBR<OK2PEN<N3HYM<LU9DCE
Sent: 190708/1800Z 28302@LU9DCE.TOR.BA.ARG.SOAM LinBPQ6.0.18

            __    _  _  ___  ____   ___  ____    ____  ____  ____
           (  )  / )( \/ _ \(    \ / __)(  __)  (  _ \(  _ \/ ___)
           / (_/\) \/ (\__  )) D (( (__  ) _)    ) _ ( ) _ (\___ \
           \____/\____/(___/(____/ \___)(____)  (____/(____/(____/
               ESTACION DE PACKET RADIO - BUENOS AIRES (GF05OM)
                   BOLETINES INFORMATIVOS PROGRAMADOS (BIP)
                  SLACKWARE LINUX - HELLOCODELINUX@GMAIL.COM

+----------------------------------------------------------------------------+
OSCAR 7
1  7530U 74089B   19188.84745606 -.00000023  00000-0  13706-3 0  9996
2  7530 101.7446 156.3130 0011904 312.1276  61.8497 12.53638798 42920
OSCAR 11 (UoSAT 2)
1 14781U 84021B   19189.13099387  .00000024  00000-0  90976-5 0  9996
2 14781  97.6095 212.9295 0007008 252.9123 107.1324 14.83093951901649
OSCAR 19 (LUSAT)
1 20442U 90005G   19189.08108564 -.00000005  00000-0  14354-4 0  9993
2 20442  98.6491 131.0495 0012955  91.9680 268.2987 14.32928163539153
EYESAT A
1 22825U 93061C   19189.51036797 -.00000013  00000-0  12828-4 0  9994
2 22825  98.9036 178.6002 0007500 306.1773  53.8714 14.30061828344786
ITAMSAT
1 22826U 93061D   19189.08771652 -.00000010  00000-0  14194-4 0  9998
2 22826  98.8977 178.1569 0007909 294.7735  65.2623 14.30395468344928
RADIO ROSTO
1 23439U 94085A   19188.93931249 -.00000040 +00000-0 +77544-4 0  9990
2 23439 064.8175 085.0000 0146166 109.4443 252.2339 11.27568232010066
JAS 2
1 24278U 96046B   19188.92344663 -.00000025 +00000-0 +10234-4 0  9994
2 24278 098.5398 339.7270 0350205 189.9745 169.4317 13.53092668130150
TECHSAT 1B
1 25397U 98043D   19188.87647355 -.00000019 +00000-0 +11115-4 0  9996
2 25397 098.6892 128.7890 0001475 030.3161 329.8102 14.23667400090384
ISS (ZARYA)
1 25544U 98067A   19189.58380612  .00000670  00000-0  19207-4 0  9997
2 25544  51.6435 255.1128 0007227 118.8666  23.9798 15.50964562178573
PCSAT
1 26931U 01043C   19189.49615688 -.00000037  00000-0  17737-4 0  9994
2 26931  67.0521 312.5746 0006982 277.7047  82.3261 14.30546368927809
SAUDISAT 1C
1 27607U 02058C   19188.86248120 -.00000053  00000-0  13568-4 0  9991
2 27607  64.5554 350.9837 0080711 252.8507 106.3746 14.75556667889862
CUTE-1
1 27844U 03031E   19189.00036846  .00000019  00000-0  28230-4 0  9996
2 27844  98.6832 196.9249 0009402 342.7225  17.3631 14.22184092831032
CUBESAT XI 4
1 27848U 03031J   19189.49062593  .00000021  00000-0  29442-4 0  9990
2 27848  98.6909 197.9120 0009469 353.0387   7.0658 14.21778707830953
MOZHAYETS 4
1 27939U 03042A   19189.48996398  .00000048  00000-0  17264-4 0  9999
2 27939  98.0443 324.9217 0013044  10.9353 349.2136 14.66789093843445
CUBESAT XI 5
1 28895U 05043F   19188.92325412 +.00000087 +00000-0 +25508-4 0  9998
2 28895 097.9618 330.9976 0015429 292.6532 067.3039 14.63672940730067
CUTE-1.7+APD II
1 32785U 08021C   19188.84654682 +.00000104 +00000-0 +16865-4 0  9991
2 32785 097.5493 187.6576 0012612 192.6500 167.4403 14.88317163606468
DELFI C3
1 32789U 08021G   19189.20617173  .00001028  00000-0  72582-4 0  9994
2 32789  97.4631 238.2817 0013687  63.5013 296.7616 15.06985747609908
SEEDS
1 32791U 08021J   19188.76567964 +.00000286 +00000-0 +34392-4 0  9991
2 32791 097.5274 193.5738 0013599 167.7060 192.4493 14.90830170606870
YUBELEINY
1 32953U 08025A   19189.52414262  .00000021  00000-0  75656-4 0  9997
2 32953  82.5017 132.4330 0020427  84.6164 275.7244 12.43090375504775
PRISM (HITOMI)
1 33493U 09002B   19188.85019191 +.00000392 +00000-0 +39876-4 0  9995
2 33493 098.1212 110.5322 0016296 117.5841 242.7037 14.96664161568000
KKS-1 (KISEKI)
1 33499U 09002H   19189.54511205  .00000039  00000-0  13863-4 0  9997
2 33499  98.3493  28.8846 0010012 137.3534 222.8453 14.75446256562151
SWISSCUBE
1 35932U 09051B   19189.45351620  .00000098  00000-0  33177-4 0  9993
2 35932  98.5897 356.0060 0008888 103.7213 256.4973 14.56290275519652
BEESAT
1 35933U 09051C   19189.45527891  .00000079  00000-0  28764-4 0  9994
2 35933  98.5923 357.7751 0006994 114.0673 246.1256 14.56378711519763
ITUPSAT 1
1 35935U 09051E   19189.11189398  .00000061  00000-0  25211-4 0  9990
2 35935  98.6033 357.6582 0009311 113.6036 246.6139 14.55537943519468
XIWANG-1 (HOPE-1)
1 36122U 09072B   19189.19292396 -.00000053  00000-0 -27919-4 0  9993
2 36122 100.0733 190.6569 0007174 304.7538  55.2911 13.16350014459448
TISAT 1
1 36799U 10035E   19189.41121798  .00000093  00000-0  15502-4 0  9993
2 36799  98.1581 342.2195 0012807  27.7019 332.4878 14.91113041487704
JUGNU
1 37839U 11058B   19189.45934939  .00000293  00000-0  14200-4 0  9994
2 37839  19.9598 214.9068 0018708 184.3507 323.5246 14.12653370400051
SRMSAT
1 37841U 11058D   19189.53074311  .00000308  00000-0  24126-4 0  9990
2 37841  19.9720 271.6610 0012012  54.6763  62.1117 14.10634980399491
M-CUBED/EXP-1 PRIME
1 37855U 11061F   19189.47198943  .00001264  00000-0  70833-4 0  9998
2 37855 101.7129  95.2227 0173694  18.2266 342.5068 15.05456284419757
HORYU 2
1 38340U 12025D   19189.17093137  .00000092  00000-0  21488-4 0  9995
2 38340  98.3276 228.3451 0012725  65.7281 294.5255 14.75725458384034
STRAND 1
1 39090U 13009E   19188.82029106  .00000001  00000-0  15507-4 0  9992
2 39090  98.4869  34.4566 0008178 227.3949 132.6548 14.35089025333134
SOMP
1 39134U 13015E   19189.55648506  .00000737  00000-0  43024-4 0  9991
2 39134  64.8640 316.0779 0031658 301.2728  58.5300 15.20183059343611
BEESAT 3
1 39135U 13015F   19189.51387066  .00000526  00000-0  35922-4 0  9993
2 39135  64.8698 334.7923 0023794 318.3338  41.5974 15.17491299343254
BEESAT 2
1 39136U 13015G   19188.96499843  .00000513  00000-0  35842-4 0  9996
2 39136  64.8708 340.4429 0020136 299.0819  60.8289 15.16919042343093
CUBEBUG 1
1 39153U 13018D   19189.22702085  .00000095  00000-0  19371-4 0  9997
2 39153  97.9793 287.2427 0018095 132.3346 227.9402 14.80572123334700
ZACUBE
1 39417U 13066B   19188.95899312 +.00000120 +00000-0 +21606-4 0  9995
2 39417 097.5616 201.3777 0058180 332.2731 027.5384 14.81121119303891
TRITON 1
1 39427U 13066M   19189.15632082  .00000154  00000-0  32124-4 0  9992
2 39427  97.6770 165.3322 0115340 102.9621 258.4494 14.67847075301199
GOMX 1
1 39430U 13066Q   19189.43920384  .00000084  00000-0  24234-4 0  9997
2 39430  97.7480 144.6923 0150766 191.5182 168.2535 14.59257737299489
HUMSAT D
1 39433U 13066T   19188.85910647 +.00000203 +00000-0 +25137-4 0  9992
2 39433 097.5522 235.5811 0029444 234.9263 124.9195 14.92200802304759
CUBEBUG 2
1 39440U 13066AA  19189.20934520  .00000128  00000-0  24784-4 0  9999
2 39440  97.6021 186.4937 0080914  22.6480 337.8268 14.75859218302854
FUNCUBE 1
1 39444U 13066AE  19189.01643879  .00000158  00000-0  25913-4 0  9994
2 39444  97.5598 203.3964 0057135 325.8068  33.9471 14.81940880302790
UWE-3
1 39446U 13066AG  19189.51840164  .00000118  00000-0  22432-4 0  9996
2 39446  97.5807 193.8290 0069944 356.7261   3.3484 14.78393914302194
SPROUT
1 39770U 14029E   19189.34313369  .00000493  00000-0  60625-4 0  9991
2 39770  97.8844 292.5074 0009988  27.3426 332.8305 14.87354475277755
UNISAT 6
1 40012U 14033C   19189.56598459  .00000093  00000-0  21267-4 0  9991
2 40012  97.7554  55.3190 0059293  34.9588 325.5491 14.73982778271616
DUCHIFAT 1
1 40021U 14033M   19189.34647443  .00000314  00000-0  37936-4 0  9991
2 40021  97.9237 114.0054 0012795 352.3517   7.7504 14.90637147274470
QB50P1
1 40025U 14033R   19189.32345537  .00000197  00000-0  27013-4 0  9996
2 40025  97.9057 108.9764 0012549   1.9832 358.1432 14.88949410274242
CHUBUSAT 1
1 40300U 14070C   19189.44309235  .00000485  00000-0  24104-4 0  9999
2 40300  97.3267 263.1262 0020123 350.5369  69.8293 15.22098909259024
NUDT-PHONESAT
1 40900U 15049B   19189.43039228  .00001380  00000-0  61916-4 0  9990
2 40900  97.4361 198.5709 0014345 112.6028  23.8059 15.22819788210664
ZDPS 2A
1 40901U 15049C   19189.46810938  .00000541  00000-0  30094-4 0  9990
2 40901  97.4587 195.0046 0014756 129.8060  29.1409 15.17738000210235
ZDPS 2B
1 40902U 15049D   19189.49434944  .00000707  00000-0  38489-4 0  9993
2 40902  97.4532 192.5235 0014783 126.8226  24.2417 15.17557781210217
XW-2A
1 40903U 15049E   19189.37198211  .00001295  00000-0  32423-4 0  9990
2 40903  97.3361 232.2464 0015383  76.4254 340.3942 15.41885997213286
KAITUO 1A
1 40904U 15049F   19189.48795197  .00000439  00000-0  26705-4 0  9994
2 40904  97.4664 191.1571 0015741 134.6342  17.4854 15.15370941209995
OBJECT G
1 40905U 15049G   19189.45111118  .00000053  00000-0  64494-5 0  9997
2 40905  97.4700 188.6546 0016820 130.6182  26.7997 15.14295969209869
XW-2C
1 40906U 15049H   19189.41510198  .00000562  00000-0  32912-4 0  9999
2 40906  97.4671 191.1652 0016177 127.1386   4.2202 15.15683472209980
XW-2D
1 40907U 15049J   19189.38560856  .00000456  00000-0  27226-4 0  9996
2 40907  97.4652 190.8153 0015444 124.0726 341.8018 15.15871332209992
LILACSAT 2
1 40908U 15049K   19189.36084844  .00000003  00000-0  37570-5 0  9995
2 40908  97.4777 189.6226 0016968 130.9233 336.3515 15.13804306209782
XW-2F
1 40910U 15049M   19189.46983470  .00000815  00000-0  44154-4 0  9998
2 40910  97.4614 192.9072 0016235 117.1138  37.4383 15.17308819210011
XW-2B
1 40911U 15049N   19189.35333828  .00000410  00000-0  24875-4 0  9992
2 40911  97.4676 191.4347 0015277 124.8116 342.0158 15.15800721209880
KAITUO 1B
1 40912U 15049P   19189.39603248  .00000833  00000-0  42198-4 0  9990
2 40912  97.4489 196.4934 0016526 101.8208   3.9902 15.19621126210308
TIANWANG 1C (TW-1C)
1 40926U 15051B   19189.41364583  .00007333  00000-0  10681-3 0  9990
2 40926  97.1334 235.5648 0006132 306.0513 244.0169 15.56001832213220
